Theta_e
317 316 318 318 318 318 319 318 318 318 318 317 318 318 317 317 317 320 317 312 313 314 315 316 316 316 316 316 317 317 317 316 316 316 316 315 315 315 315 315 314 313 312 311 311 311 311 311 310 310 310 308 307 306 306 306 305 305 305 304 302 301 300 300 299 299 298 298 298 298 298 298 297 297 297 297 297 297 297 297 297 297 297 297 297 296
316 316 317 318 319 318 318 319 319 318 318 317 317 316 316 317 318 320 317 311 312 313 315 316 316 316 316 316 316 316 316 315 316 316 316 316 316 316 315 315 314 313 312 311 311 310 310 309 309 309 309 308 307 306 306 306 306 305 305 304 302 301 300 300 299 299 298 298 298 298 298 297 296 296 296 296 297 297 297 297 297 297 297 296 296 296
316 317 317 318 318 318 317 317 317 317 317 317 317 317 317 318 319 319 315 310 311 312 314 316 315 315 316 316 316 316 315 315 316 316 316 316 316 316 316 316 315 314 312 311 310 309 309 309 308 308 308 308 308 307 307 306 305 305 304 303 302 300 300 299 299 299 298 298 297 297 297 296 296 296 296 296 297 297 297 297 297 296 296 296 296 295
317 317 317 318 318 317 317 316 315 315 316 317 317 317 317 318 320 318 314 311 310 311 313 314 314 314 315 315 315 316 316 316 316 316 316 317 317 317 317 317 316 314 312 312 311 309 309 308 308 308 308 308 307 307 306 306 305 304 304 303 301 300 300 299 299 298 297 297 297 297 297 296 296 296 296 296 296 296 296 296 296 296 296 295 295 294
318 317 315 316 317 317 317 316 316 315 316 317 318 318 318 319 319 319 317 314 313 313 312 313 314 315 316 317 316 316 316 316 316 316 316 316 316 316 316 317 316 314 313 312 311 310 308 308 308 308 308 308 308 308 307 306 305 304 303 303 301 300 300 299 299 298 297 297 297 296 296 296 295 295 296 296 296 296 296 296 296 296 295 295 294 293
317 316 314 316 316 316 317 317 317 317 316 317 319 319 319 319 319 320 319 316 316 317 313 313 315 315 316 318 318 316 314 314 315 315 315 315 315 316 316 316 316 315 313 312 311 310 309 309 308 308 308 308 308 308 307 307 305 304 304 303 302 301 300 299 299 298 297 297 296 296 296 295 295 295 295 296 296 296 296 296 295 295 295 294 293 293
317 314 313 317 318 317 317 316 317 319 316 316 319 320 319 319 319 320 319 317 317 317 314 313 315 316 316 316 317 317 315 315 316 316 316 315 315 316 317 316 315 314 313 312 311 310 309 309 309 309 309 309 309 308 307 306 305 304 304 303 302 301 300 299 299 298 297 296 296 296 295 295 295 295 295 295 295 295 295 295 295 295 294 294 293 292
317 314 314 316 317 317 317 317 318 318 317 317 318 318 317 317 318 318 318 317 317 317 315 314 315 316 316 316 316 316 315 315 315 316 317 316 315 315 317 317 316 315 314 312 312 311 310 310 310 311 311 311 310 309 308 307 306 305 304 303 302 301 300 299 299 298 297 296 296 295 295 295 295 295 294 295 295 295 295 295 294 294 294 293 292 292
317 316 316 315 315 317 317 317 318 319 318 317 314 314 315 316 316 317 316 316 316 316 316 316 315 315 316 316 316 316 315 315 315 315 316 316 316 315 316 318 317 316 314 313 312 311 311 311 312 311 311 311 310 309 308 308 307 305 304 303 302 301 300 299 299 298 296 296 295 295 295 295 295 294 294 294 295 294 294 294 294 293 293 292 292 291
316 313 314 315 316 317 315 312 314 318 318 314 312 313 314 314 314 314 315 315 315 315 317 317 315 315 316 316 316 316 315 315 315 315 316 316 317 317 317 318 318 316 314 313 312 311 311 311 312 312 311 311 310 310 309 308 307 306 305 304 303 301 300 299 298 297 296 296 295 295 295 294 294 294 294 294 294 294 294 294 294 293 292 291 291 291
312 308 310 314 315 314 311 308 309 313 313 312 313 314 314 314 313 313 313 313 314 317 318 318 316 315 316 316 316 316 315 316 316 316 316 317 318 318 317 316 317 316 314 313 311 311 312 312 312 312 311 311 310 309 309 308 307 306 305 304 303 302 300 299 298 297 296 295 295 294 294 294 294 294 294 294 294 294 294 293 293 293 292 291 291 290
312 309 311 313 312 311 311 310 309 308 310 312 314 314 315 315 313 313 313 312 315 318 317 317 317 316 316 315 315 316 315 316 316 315 315 316 318 319 317 316 315 315 313 312 312 312 312 313 312 313 312 311 311 310 309 308 307 306 305 304 303 302 301 299 298 297 296 295 295 294 294 294 293 293 294 294 294 294 293 293 293 292 292 291 291 290
316 314 314 312 309 310 313 313 310 308 309 312 313 314 316 316 316 316 316 315 317 317 314 315 317 318 316 315 315 315 315 315 315 315 315 316 317 317 318 317 315 314 313 312 313 313 313 313 313 313 312 311 312 312 311 309 308 307 306 304 303 302 301 299 298 297 295 295 294 294 294 294 293 293 293 293 293 293 293 293 293 292 291 291 291 290
318 316 314 313 311 310 313 315 314 312 310 311 314 315 316 317 318 319 318 317 318 317 313 311 314 315 314 314 315 315 314 315 315 315 316 316 316 316 317 317 315 314 313 313 314 314 313 313 313 313 312 312 312 312 311 310 309 308 306 305 303 302 301 299 298 297 296 295 294 294 293 293 293 293 293 293 293 293 293 293 292 292 291 291 290 290
318 317 315 315 314 312 313 314 317 316 312 312 314 315 316 317 317 318 317 317 317 317 314 311 312 313 312 313 316 315 315 316 315 315 316 315 315 316 316 315 313 313 312 313 314 314 313 313 313 313 312 312 312 311 311 310 310 308 307 306 305 303 301 300 299 297 296 295 294 294 293 293 293 293 293 293 292 292 293 292 292 291 290 290 290 289
316 318 318 314 312 312 313 315 315 315 313 313 313 315 316 316 316 316 317 317 315 315 315 313 312 313 313 314 316 315 315 315 315 315 316 315 315 315 315 313 312 312 312 313 314 314 313 312 312 312 312 312 311 311 311 311 311 309 308 308 306 304 302 301 299 298 296 295 294 294 293 293 293 293 292 292 292 292 292 292 291 290 290 290 289 289
315 317 316 310 309 309 309 311 313 314 314 313 313 315 315 315 316 317 318 317 314 314 316 315 314 314 314 315 316 315 314 314 314 315 315 316 315 315 315 314 313 312 312 312 313 313 313 312 312 312 312 312 311 311 311 312 311 310 309 308 306 304 302 301 300 298 297 295 294 294 293 293 292 292 292 292 292 292 292 291 290 290 290 290 289 289
316 316 314 310 311 308 303 306 309 310 312 313 313 314 314 313 314 314 316 316 315 316 316 315 315 314 314 315 315 314 313 314 314 315 315 315 316 316 315 314 313 313 312 312 312 313 313 313 312 312 312 312 312 311 311 311 311 310 309 308 307 304 303 302 300 298 297 296 295 294 293 292 292 292 292 292 292 292 291 291 290 290 290 289 289 289
317 316 315 309 309 307 303 306 310 309 309 309 310 312 312 313 314 314 315 315 314 316 316 316 316 315 315 315 314 313 313 314 314 314 314 314 314 315 315 314 314 313 313 312 312 312 312 313 313 313 313 312 312 311 311 311 310 309 308 307 306 304 303 302 300 299 297 296 295 294 293 292 292 292 291 291 291 291 291 290 290 290 290 289 289 289
316 316 316 307 305 308 306 307 311 311 308 306 308 310 310 311 313 314 314 314 314 315 316 317 317 316 316 317 316 314 313 313 314 314 314 313 314 315 314 314 314 313 313 313 312 312 312 312 312 312 312 312 312 311 311 311 310 309 308 307 306 304 302 301 300 299 298 296 295 293 292 292 292 291 291 291 291 291 290 290 290 290 289 289 289 289
315 316 316 308 304 308 309 309 311 313 311 308 308 310 310 310 311 312 313 314 314 314 315 316 317 316 315 316 317 315 314 314 314 314 315 315 314 314 314 314 313 313 313 312 312 312 312 312 312 312 312 311 311 311 311 310 310 309 308 307 306 304 303 302 300 299 297 296 295 293 292 292 291 291 291 291 291 290 290 290 290 289 289 289 289 288
315 315 316 313 309 310 312 312 312 314 314 312 310 311 311 311 311 312 314 314 313 314 315 316 316 316 315 315 315 315 315 315 315 315 316 316 315 315 314 313 313 312 312 312 312 312 312 312 312 312 312 311 311 311 311 310 310 309 308 308 306 304 303 302 300 299 297 296 295 293 292 291 291 291 291 291 290 290 290 289 289 289 289 289 288 288
315 315 315 315 315 315 313 311 311 313 313 312 312 312 312 312 312 314 315 315 314 313 314 315 315 316 315 315 314 314 314 314 314 314 315 316 315 314 313 313 312 312 312 312 312 311 311 311 311 311 311 311 311 311 311 310 310 309 309 308 307 305 303 302 300 299 297 296 294 293 292 291 291 291 290 290 290 290 289 289 289 289 289 288 288 288
313 314 314 314 314 315 313 308 307 308 310 311 312 312 313 313 313 314 314 314 314 314 314 314 315 315 315 315 314 313 314 313 313 313 313 314 314 313 313 312 311 311 311 311 311 311 311 311 311 311 311 310 310 310 310 310 310 309 308 308 307 305 303 301 299 298 297 295 294 292 291 291 291 290 290 290 290 289 289 289 289 289 288 288 288 288
313 314 314 314 314 315 314 310 308 307 308 310 311 312 313 313 314 314 313 312 313 315 315 315 315 315 315 316 315 314 314 312 312 312 312 313 313 312 313 312 311 311 311 311 311 310 311 311 311 311 310 310 310 310 310 310 310 309 308 308 307 304 302 300 299 298 296 295 293 292 291 291 290 290 290 289 289 289 289 289 289 288 288 288 288 288
313 314 313 313 313 314 315 314 313 311 308 308 310 311 313 313 313 314 313 313 313 315 314 314 315 314 314 315 314 314 314 312 312 312 311 311 312 312 313 312 310 310 310 310 310 310 310 310 310 310 310 310 310 310 310 309 309 309 308 307 305 303 301 300 299 297 296 294 293 292 291 290 290 290 289 289 289 289 289 288 288 288 288 288 288 288
313 313 312 313 313 313 314 314 315 315 311 309 311 311 312 313 314 313 313 313 314 314 314 314 314 314 314 314 313 313 313 313 313 313 312 312 311 311 312 311 310 310 310 310 310 310 310 310 310 309 309 309 310 309 309 309 309 308 307 306 305 303 301 300 298 297 295 294 292 291 291 290 290 289 289 289 289 288 288 288 288 288 288 288 288 287
314 313 312 313 312 312 312 312 313 314 313 312 313 312 311 313 314 314 314 313 314 314 314 314 314 315 314 313 313 313 313 313 313 313 313 313 312 312 311 311 310 309 310 310 310 309 309 309 309 309 309 309 309 309 309 308 308 307 306 304 304 302 301 300 298 296 295 293 292 291 290 290 289 289 289 288 288 288 288 288 288 288 288 288 288 287
311 311 312 313 312 312 312 312 312 313 313 313 314 314 312 312 313 314 313 313 313 314 314 314 314 314 314 313 313 313 313 313 312 312 313 312 312 312 311 310 309 309 309 309 309 309 309 309 309 308 308 308 308 308 308 308 307 306 304 303 302 302 301 299 298 296 294 293 291 290 290 289 289 289 288 288 288 288 288 288 288 288 288 288 287 287
310 310 311 312 311 312 312 312 312 312 312 312 313 313 313 313 313 313 313 312 313 313 313 313 314 314 313 312 312 312 313 312 312 312 312 312 312 312 311 310 310 310 309 309 309 309 308 308 308 308 308 308 308 308 307 307 306 305 304 303 302 301 300 299 297 295 294 292 291 290 289 289 289 288 288 288 288 288 288 288 288 288 288 288 287 287
309 310 311 311 311 312 311 311 312 311 311 311 311 312 312 312 312 312 313 313 313 313 313 313 313 313 312 313 312 312 313 312 312 312 312 311 311 311 311 311 310 310 310 310 310 309 309 308 308 308 308 308 307 307 307 306 305 304 303 303 302 301 300 298 296 294 293 291 290 290 289 289 289 288 288 288 288 288 288 288 288 288 288 287 287 286
309 310 310 310 311 311 311 311 311 310 311 310 310 310 310 310 311 311 312 313 312 313 312 313 313 312 312 312 312 312 312 312 311 311 311 311 311 311 311 311 311 310 310 310 310 310 309 309 309 308 308 308 308 307 307 306 305 304 303 303 302 300 299 297 295 294 292 291 290 289 289 289 288 288 288 288 288 288 288 288 288 288 287 287 286 286
308 309 309 310 311 311 311 311 311 311 312 311 311 310 310 310 310 310 311 311 312 312 312 312 312 311 311 311 311 311 310 311 311 311 311 311 311 311 311 311 311 310 310 310 310 310 310 309 309 309 309 309 308 307 307 306 306 305 304 303 301 300 298 296 294 293 291 290 289 289 289 289 288 288 288 288 288 288 288 288 288 288 287 286 286 286
308 309 309 310 311 311 311 311 311 312 312 312 311 311 310 310 310 310 310 311 311 311 311 311 311 310 311 311 310 310 310 311 311 311 311 311 311 311 311 311 311 311 310 310 310 310 310 310 309 309 309 309 308 307 307 306 305 304 303 302 301 299 298 296 294 292 291 290 289 289 289 289 288 288 288 288 288 288 288 288 288 287 286 286 286 286
309 308 308 310 310 311 311 311 312 312 312 312 311 311 310 310 310 310 311 311 311 311 311 311 311 310 311 311 310 311 311 311 311 311 311 311 311 311 311 311 311 311 310 310 310 310 310 309 309 309 309 308 308 307 306 306 305 304 302 301 300 298 297 295 294 292 290 290 289 289 289 288 288 288 288 288 288 288 288 288 287 286 286 286 286 285
309 309 309 309 310 310 311 311 313 313 312 310 311 310 310 310 310 311 311 311 310 311 311 311 311 311 311 311 311 312 312 311 311 311 311 311 311 311 311 311 310 311 310 310 310 310 310 309 309 309 308 308 307 307 306 306 305 304 302 301 300 298 296 295 293 291 290 290 289 289 288 288 288 288 288 288 288 287 288 287 287 286 286 286 286 285
309 309 310 310 311 311 311 311 312 313 312 311 312 312 311 311 311 311 312 312 310 310 311 311 311 311 311 311 311 312 311 311 311 311 311 311 311 311 311 310 310 310 310 310 310 310 309 309 309 309 309 309 308 308 308 307 305 304 303 301 299 297 296 294 292 291 290 290 289 289 288 288 287 287 288 287 287 287 287 287 287 286 286 286 285 284
308 309 310 311 312 312 312 312 312 313 312 313 313 313 311 311 311 312 313 313 312 311 311 311 311 311 311 311 311 311 311 312 311 311 311 311 311 311 310 310 310 310 310 310 310 310 310 309 309 309 310 310 310 310 309 308 306 304 302 301 299 297 295 293 292 291 290 290 289 288 288 287 287 287 287 287 287 288 287 287 287 286 286 285 284 284
308 308 309 311 311 313 313 313 313 313 313 313 312 312 311 312 312 312 313 313 313 311 311 311 311 311 311 311 311 311 312 311 311 311 311 311 311 311 310 310 310 310 310 310 310 310 311 310 310 310 311 311 311 311 310 309 307 304 302 301 299 297 295 294 293 292 290 289 289 288 287 287 287 287 287 287 287 288 287 287 286 286 285 284 284 283
308 308 309 310 310 311 312 313 313 313 313 313 313 311 311 311 311 313 314 314 312 311 311 311 311 311 311 311 311 311 311 311 311 311 311 311 311 311 310 310 311 311 311 310 311 312 311 311 310 311 311 312 312 312 311 309 307 305 303 301 299 297 296 295 293 291 290 289 288 287 287 287 287 287 287 287 287 287 286 286 286 285 285 284 283 283
309 309 309 310 310 310 311 312 313 312 312 313 312 311 311 311 312 313 313 313 311 311 311 311 311 311 310 310 310 310 310 310 310 311 311 310 310 310 310 310 310 311 310 310 310 311 311 311 311 311 311 311 311 311 310 309 307 306 304 301 299 299 298 295 292 290 289 288 287 287 287 287 287 287 287 287 287 286 286 286 285 285 284 283 283 282
310 309 309 310 310 310 310 311 312 312 312 312 311 311 311 312 312 312 312 311 311 311 311 311 311 310 310 310 310 310 310 310 310 310 310 310 310 310 310 310 310 310 311 311 311 311 311 311 311 311 311 311 310 310 309 308 307 306 304 302 301 300 297 294 292 290 289 287 287 286 286 287 287 287 287 286 286 286 286 285 285 284 283 282 282 282
311 311 310 310 310 310 311 311 312 312 314 312 311 311 311 311 312 311 311 311 311 311 310 311 311 310 310 310 310 310 310 310 310 310 310 310 310 309 310 310 309 310 310 311 310 309 309 310 310 310 310 310 310 309 308 307 306 305 304 303 302 299 296 293 291 289 288 287 286 286 286 286 286 286 286 286 285 285 285 285 284 283 282 282 282 281
313 313 312 310 310 311 311 311 312 312 312 312 312 311 311 310 311 311 311 312 311 311 311 311 311 311 311 310 310 310 310 310 310 310 310 310 309 309 310 310 310 309 309 309 309 308 308 308 308 309 309 309 309 308 307 307 306 304 303 302 300 297 294 292 290 288 287 286 286 286 286 286 286 286 286 285 285 285 285 284 283 281 281 282 281 280
313 313 312 312 312 311 311 311 311 310 310 310 311 311 311 311 311 311 311 311 311 312 311 311 311 310 310 310 310 310 310 309 309 309 309 309 309 309 309 309 309 309 309 309 309 309 309 309 308 308 308 308 308 307 306 306 305 304 303 301 298 295 293 291 289 287 286 285 285 286 286 286 286 286 285 285 285 285 284 283 282 281 281 281 280 280
310 309 308 309 310 310 310 311 312 311 310 309 309 310 310 311 311 310 310 311 311 310 309 309 308 308 308 308 308 308 308 308 308 308 308 308 308 309 309 309 309 309 309 310 309 309 309 309 309 307 307 307 306 306 305 304 303 302 301 300 297 294 292 290 288 286 285 285 285 286 286 286 286 285 285 285 285 284 283 281 280 280 281 280 279 279
308 306 304 305 307 307 309 310 310 307 306 306 306 307 308 309 308 307 307 307 307 306 306 306 306 306 307 307 307 307 307 307 307 307 307 307 308 308 308 308 308 308 309 309 309 309 308 308 308 308 307 306 305 304 304 302 301 299 297 297 296 294 291 289 287 286 285 285 286 286 286 286 286 286 286 285 284 283 282 280 279 280 280 279 278 278
304 302 300 302 304 304 305 306 306 305 305 306 306 307 308 307 306 304 304 303 303 303 303 304 304 305 306 307 307 307 307 307 307 307 307 307 307 307 307 307 307 307 308 308 308 308 308 308 307 307 307 306 305 303 302 301 299 297 295 294 294 293 291 288 286 285 285 285 286 286 286 286 286 286 286 285 283 282 281 279 279 280 280 278 278 278
299 299 298 299 301 301 300 301 303 305 305 305 306 306 305 304 302 301 300 300 300 300 301 301 301 303 304 304 305 305 306 306 306 306 306 307 306 306 306 307 307 307 307 307 306 306 306 306 306 305 305 305 304 303 301 300 298 297 295 293 292 291 289 287 285 284 285 285 286 286 286 286 286 286 285 283 282 281 279 278 278 279 278 278 277 277
296 296 297 297 298 298 299 300 303 304 303 303 303 302 300 299 298 297 297 297 297 297 297 297 298 298 299 300 301 302 303 304 304 305 305 305 306 306 306 306 306 306 306 306 306 306 305 305 305 304 303 303 302 302 300 298 297 296 294 292 290 289 288 286 284 284 285 286 286 286 286 286 286 285 284 282 281 280 279 278 279 279 278 277 277 277
296 296 296 296 297 298 298 299 300 300 299 299 298 297 296 295 295 295 295 294 294 294 295 295 295 296 296 298 299 301 302 303 304 304 305 305 305 306 306 306 306 306 306 306 306 306 306 305 304 303 303 302 301 300 298 296 296 295 293 291 289 288 287 285 285 285 285 285 285 286 287 287 286 284 283 282 281 280 279 279 279 279 278 277 276 276
Wind_Speed
7 6 7 10 12 13 14 15 17 17 14 13 12 10 13 12 13 16 5 6 6 6 10 15 16 19 22 20 19 22 22 20 21 22 25 28 27 24 26 29 29 31 34 34 35 36 36 36 36 36 38 40 42 42 44 46 46 47 46 45 44 43 42 42 42 40 39 38 36 34 32 29 27 25 23 21 20 19 17 15 13 13 13 13 14 14
5 7 12 17 17 13 10 9 12 14 14 12 11 12 12 11 14 13 1 6 5 4 9 14 16 19 20 19 19 21 20 19 23 24 26 28 26 24 26 29 28 25 26 29 30 33 34 35 36 37 39 41 41 42 44 45 46 46 47 46 45 44 43 43 43 42 40 38 36 35 32 30 28 26 24 23 22 20 18 16 14 14 14 14 14 15
6 10 18 20 10 5 4 4 9 13 13 12 9 9 9 10 12 7 4 5 5 4 7 11 13 16 19 20 20 21 20 20 29 30 26 27 26 24 25 24 22 21 24 27 27 30 32 33 35 36 39 40 41 42 43 45 46 47 47 47 47 45 45 44 44 43 41 39 37 35 33 30 29 28 26 25 23 21 19 17 16 15 15 15 15 16
8 10 14 11 3 4 8 6 8 10 10 10 8 7 10 10 9 6 2 3 6 6 8 11 12 13 17 19 19 25 26 23 30 31 26 27 28 28 26 21 17 19 24 27 26 27 29 31 33 35 37 38 39 41 43 45 47 48 48 48 48 47 46 45 45 44 41 40 38 36 34 32 30 29 27 25 24 22 20 18 17 16 15 15 16 16
13 7 1 1 2 6 10 7 7 8 7 9 10 10 11 11 11 9 2 3 7 9 6 8 11 11 13 15 14 14 15 16 21 22 21 27 31 30 28 23 19 20 23 24 24 25 27 30 31 31 33 35 37 40 42 45 47 48 48 48 49 48 47 46 46 45 43 42 40 37 35 33 31 30 27 26 25 23 22 19 18 16 16 16 16 17
15 5 4 2 3 5 8 8 9 9 7 8 12 14 16 14 13 11 5 6 8 7 2 2 9 8 6 10 10 4 5 8 12 12 15 25 30 25 23 23 21 21 23 23 22 24 26 28 28 28 30 32 35 37 40 43 45 47 48 48 49 49 48 48 48 46 44 43 41 38 37 35 33 31 30 28 26 24 22 20 18 17 16 16 16 17
6 2 3 5 6 5 8 11 11 9 8 8 5 7 11 13 13 12 7 5 6 7 1 2 6 9 4 6 8 5 7 9 8 8 13 20 26 24 20 19 18 19 21 20 19 22 25 27 27 26 27 28 31 34 37 40 43 45 47 48 48 49 49 49 49 47 45 44 42 39 37 35 33 32 31 29 27 25 23 21 19 18 17 16 17 18
4 4 3 5 7 7 9 10 10 11 9 5 1 2 2 5 8 8 6 6 6 9 5 5 3 10 10 6 9 8 8 10 10 11 12 15 21 26 23 16 15 19 19 18 17 21 25 25 24 23 23 24 26 29 34 37 40 43 45 47 48 49 50 50 50 48 46 45 43 41 38 36 35 33 32 30 28 26 24 21 19 18 17 17 17 18
3 5 6 8 7 7 7 3 2 10 9 2 3 3 3 1 2 2 3 6 6 8 8 8 10 8 12 6 10 13 13 12 13 14 13 12 16 24 25 17 15 18 18 16 16 19 23 22 21 20 20 21 23 26 30 33 36 40 43 45 47 49 51 51 50 48 47 45 44 41 39 38 36 34 33 32 29 26 24 21 20 18 18 18 18 19
2 2 3 7 7 6 3 4 4 4 5 2 4 4 5 3 1 2 4 4 5 9 9 9 13 7 13 7 8 10 9 11 12 11 11 13 14 19 23 18 14 17 17 15 15 17 19 19 18 18 19 21 22 24 27 30 34 37 40 43 45 48 51 51 50 49 48 46 45 43 41 39 37 36 34 32 29 27 24 22 20 19 19 19 19 19
3 4 1 4 6 2 5 6 5 3 3 5 5 2 2 3 2 2 4 2 4 11 8 13 18 11 10 4 7 8 8 12 11 8 9 11 11 15 19 19 16 18 17 15 15 16 16 17 17 18 20 21 23 24 26 29 32 34 37 41 44 47 50 50 50 50 48 47 46 44 42 40 38 37 35 33 30 28 25 23 21 20 19 19 19 20
6 5 3 3 3 4 5 3 3 3 3 4 3 2 2 4 3 3 4 3 6 10 3 13 20 17 11 3 6 8 10 14 11 6 7 8 8 12 15 16 16 16 16 14 15 17 17 18 19 19 20 22 23 24 26 28 29 32 35 39 43 46 48 50 51 50 49 49 47 46 44 41 39 38 36 34 31 29 26 23 22 21 20 20 20 20
6 7 7 4 3 7 6 2 2 2 3 4 5 4 4 4 3 4 4 4 8 7 2 7 11 13 13 9 7 7 9 13 9 4 8 8 8 12 12 13 15 15 14 13 17 19 19 20 19 19 20 21 21 23 24 26 28 31 34 38 42 45 47 49 51 51 51 50 49 47 45 43 40 39 36 34 32 29 27 24 23 22 20 20 20 20
3 3 8 6 3 10 12 7 5 4 7 9 7 6 6 5 5 6 6 6 8 4 3 4 2 6 9 8 14 16 13 15 12 10 13 14 14 14 13 14 15 15 14 14 19 21 19 20 19 18 18 18 19 21 23 24 27 30 33 37 40 44 46 49 50 51 51 51 50 48 46 44 41 39 37 35 33 30 27 25 24 22 21 21 20 21
6 6 8 9 4 12 17 11 4 2 7 10 7 6 7 6 6 6 7 7 6 5 2 5 2 5 5 2 14 20 19 19 17 16 17 20 24 20 15 15 17 17 17 16 19 22 20 20 19 18 18 17 18 20 21 23 26 30 32 34 38 42 46 48 49 51 52 52 51 50 48 45 42 40 38 36 33 31 28 26 24 22 21 21 21 21
8 9 5 5 2 11 13 6 2 4 4 6 5 6 7 6 7 7 8 6 3 7 6 6 4 7 6 4 9 12 14 17 18 17 16 20 27 24 19 22 22 20 20 19 21 24 23 21 20 20 19 17 18 20 20 23 27 28 29 32 36 41 44 46 49 51 52 52 52 51 49 46 43 40 39 37 34 31 29 26 24 23 22 22 21 21
7 5 4 4 1 5 4 1 1 2 2 5 6 6 3 1 3 6 8 3 1 7 8 5 7 9 9 9 9 13 13 15 15 16 15 17 20 19 21 26 25 24 24 23 23 26 26 23 21 20 20 20 21 20 21 24 26 27 27 30 34 40 44 46 48 51 52 53 53 52 50 47 44 41 39 37 34 32 29 26 24 23 22 22 22 22
5 4 3 4 1 1 3 4 2 4 1 4 4 4 2 3 1 4 6 3 3 9 9 9 13 12 10 8 8 15 16 16 17 16 14 13 12 12 19 27 27 25 26 25 25 27 28 26 24 23 23 23 23 22 23 25 27 28 28 30 33 38 42 45 48 50 52 53 53 53 51 48 44 41 39 37 34 31 29 26 24 23 23 22 22 22
2 4 3 1 1 3 3 1 3 2 1 1 3 2 1 1 3 5 5 4 6 8 9 15 19 15 11 7 6 14 16 17 18 16 13 11 10 11 18 25 27 24 24 25 27 29 31 31 31 29 27 26 26 25 25 27 29 29 30 30 33 38 41 43 46 49 52 53 54 54 52 48 44 42 40 37 34 31 29 26 25 24 23 23 23 23
2 4 3 1 3 2 3 4 5 5 3 0 4 3 1 2 3 5 6 5 6 8 9 16 19 13 9 6 7 14 17 17 16 13 12 12 13 14 16 22 26 25 25 27 28 28 30 33 34 33 31 29 28 27 28 30 31 31 31 31 33 38 41 43 46 49 51 53 54 54 51 47 44 42 40 37 34 31 29 27 25 24 23 23 23 23
2 3 4 0 1 3 4 7 9 10 9 6 5 6 6 3 1 2 5 6 6 7 7 10 15 12 3 2 6 13 16 16 14 11 9 9 13 15 17 22 27 27 27 27 27 26 26 28 29 30 29 28 28 30 31 33 33 33 32 32 34 38 40 43 46 49 51 53 54 54 51 48 45 43 40 37 34 32 29 28 26 24 23 23 23 23
3 4 6 4 3 6 8 9 12 11 9 9 9 9 10 9 5 4 7 6 4 6 9 8 13 15 2 7 4 8 12 12 12 11 7 7 12 15 17 22 25 25 26 26 26 26 25 25 26 27 28 28 30 33 36 36 35 34 34 33 36 39 40 42 46 48 51 53 54 53 51 49 45 43 40 37 34 32 30 28 26 24 24 23 23 23
5 2 6 8 7 8 6 4 3 3 2 3 6 8 10 10 9 8 8 5 4 6 9 10 13 16 4 8 5 5 7 6 8 9 7 8 13 16 20 24 24 24 25 26 26 26 25 26 27 28 29 30 32 35 38 38 37 36 36 35 37 40 41 43 45 48 50 53 54 53 51 48 45 43 40 37 35 33 30 27 26 25 23 22 22 23
3 1 6 8 7 8 3 4 3 1 2 3 6 8 9 10 11 10 6 3 3 6 9 9 11 15 6 8 6 3 4 5 8 9 8 10 14 17 21 24 26 26 27 27 27 27 27 29 30 31 31 33 35 37 39 40 39 38 37 37 38 41 42 44 46 48 50 52 53 53 51 48 46 43 40 37 35 32 30 28 26 25 23 22 23 23
6 4 6 5 6 6 4 3 2 2 5 7 9 11 11 12 13 9 4 2 5 14 18 11 8 13 9 3 2 10 8 7 9 12 13 13 14 18 22 25 27 28 28 29 28 28 31 33 33 33 33 35 36 37 39 41 41 40 39 38 40 41 43 44 46 48 50 52 54 53 51 49 46 43 40 37 35 32 30 28 26 24 23 22 22 23
8 5 7 8 9 8 9 11 6 3 6 7 9 14 15 16 17 11 6 7 11 19 21 14 11 15 14 11 17 20 12 7 10 12 13 15 18 20 23 26 30 30 30 30 30 31 33 34 34 34 35 37 38 37 38 41 42 42 40 39 40 42 43 44 45 48 50 53 54 54 52 49 46 43 40 37 35 32 30 27 25 23 22 22 22 22
5 5 11 14 15 14 15 18 10 2 5 8 11 17 17 17 20 14 9 12 14 13 13 15 20 21 18 20 25 26 19 16 17 13 9 13 20 23 24 28 31 32 32 31 32 33 33 34 34 34 36 38 39 38 38 40 43 43 41 41 41 42 43 44 45 48 51 53 54 54 52 50 47 43 39 37 35 32 29 26 24 23 22 22 22 22
1 6 14 18 21 20 20 23 21 15 12 11 11 15 17 17 18 16 17 19 14 8 10 17 24 23 17 19 25 27 25 22 19 17 18 22 25 24 23 27 30 31 32 31 32 33 34 35 36 36 37 39 39 40 40 41 43 43 42 42 42 42 44 44 46 48 51 53 54 54 52 50 46 42 40 37 34 31 28 25 24 23 23 23 22 21
1 6 11 15 19 19 20 22 23 23 21 16 12 13 15 17 19 23 25 22 14 12 16 19 24 24 18 17 23 25 24 22 22 25 27 30 33 28 20 22 28 30 30 30 32 33 35 37 38 38 39 40 41 41 41 42 43 43 43 42 42 43 44 44 46 48 51 53 54 54 53 50 46 43 40 37 33 30 27 25 24 23 23 23 22 21
2 5 9 13 16 18 18 20 22 24 24 22 19 15 12 14 22 26 22 16 17 24 26 24 26 25 18 18 24 27 28 28 28 30 30 30 36 35 24 22 28 32 30 30 33 36 38 39 39 39 40 40 41 42 42 43 43 44 44 43 43 43 44 45 47 49 51 53 54 54 52 49 46 43 40 36 33 30 27 25 24 23 23 23 21 20
4 7 9 10 12 14 18 21 23 24 24 24 23 20 19 22 26 24 16 13 19 24 25 25 27 21 15 19 24 25 28 26 23 25 28 33 41 41 31 26 31 37 36 35 37 37 37 38 38 38 39 39 40 41 42 42 43 43 43 43 43 44 44 45 47 49 51 53 53 53 52 49 46 42 39 35 32 29 27 25 24 24 23 22 20 19
4 7 7 7 10 12 16 20 22 23 24 24 22 22 26 28 25 20 16 16 18 19 20 21 19 14 14 19 19 19 24 23 20 22 27 36 44 41 31 30 35 38 38 39 39 37 35 35 36 37 38 38 38 40 41 41 42 42 43 43 44 44 45 46 47 49 51 52 53 53 52 49 45 41 38 35 32 29 27 25 25 24 22 21 19 18
5 6 6 7 10 11 15 20 20 17 16 16 18 23 27 26 23 22 23 23 21 17 15 14 12 13 17 19 18 21 25 22 19 22 27 33 38 33 27 30 35 36 35 37 37 35 33 33 34 35 35 35 35 36 36 37 39 41 42 43 43 44 45 46 48 50 51 53 54 54 52 48 44 41 38 35 32 29 27 26 24 23 21 20 18 18
8 9 8 7 7 10 14 16 13 10 11 13 15 19 21 23 25 26 25 25 23 20 16 13 13 16 18 18 20 24 24 23 26 31 34 35 32 27 28 35 39 37 37 37 36 34 33 32 32 33 32 31 32 32 32 34 36 39 40 41 42 44 45 46 48 50 52 53 54 53 51 48 44 41 38 35 31 29 27 25 24 22 20 18 18 17
10 10 8 7 7 8 9 9 10 11 12 13 11 12 16 23 27 27 24 25 26 26 24 21 19 21 23 23 25 26 25 29 35 37 40 41 35 28 30 40 44 41 39 39 36 34 33 32 31 31 30 28 29 29 30 32 35 37 39 41 42 43 45 46 48 50 52 54 54 53 50 47 44 41 37 34 31 28 27 25 23 20 19 18 18 18
13 10 7 7 8 6 5 9 10 7 3 3 6 11 17 19 18 19 21 26 29 28 26 24 24 27 29 28 30 32 32 34 33 32 39 44 37 31 34 42 47 45 42 40 38 34 32 30 29 29 27 25 25 26 28 30 32 35 38 40 41 43 45 46 48 50 52 53 53 52 49 47 43 40 36 33 31 28 26 24 21 19 19 19 19 17
16 11 7 8 9 7 8 11 11 8 3 4 8 13 15 13 14 17 19 20 22 20 20 22 24 28 30 29 32 36 32 24 16 21 38 46 39 36 40 44 46 46 43 41 38 35 32 29 27 24 21 21 22 23 25 27 30 33 36 38 40 42 44 46 48 50 52 53 53 52 49 46 43 40 36 33 30 27 25 22 20 20 20 20 18 17
20 16 12 11 9 9 10 9 8 10 8 9 14 18 17 16 20 22 19 14 11 13 18 21 24 28 28 27 28 26 19 10 6 14 33 44 39 36 37 38 39 40 39 37 34 31 29 26 23 20 19 20 22 23 23 25 28 31 34 37 40 42 44 47 48 50 51 53 53 52 49 46 42 39 36 32 29 27 24 22 21 20 20 19 17 17
21 16 14 12 8 8 10 8 8 10 8 10 16 19 21 24 22 17 15 9 8 13 21 23 25 27 23 21 21 15 9 7 7 14 31 41 40 36 33 32 33 34 33 32 28 25 24 22 21 21 20 22 24 24 25 26 27 30 33 36 39 42 45 47 48 50 51 53 53 51 48 45 42 38 35 31 28 26 24 22 21 20 20 18 17 17
18 11 11 13 10 10 12 9 6 7 5 8 14 18 24 29 22 14 12 6 9 19 27 26 25 23 19 18 17 12 9 10 12 22 36 40 37 36 35 33 34 33 31 29 25 23 24 22 23 25 25 26 27 26 27 27 27 30 32 34 38 42 44 46 48 49 51 52 52 50 46 43 40 37 33 31 28 26 23 21 21 21 19 17 16 16
11 8 10 12 10 12 15 11 6 7 7 10 14 19 20 18 13 12 12 8 10 20 28 26 23 21 21 19 14 11 15 24 29 36 40 38 34 36 38 37 36 33 29 28 26 26 26 25 25 28 28 28 28 28 28 28 28 30 32 35 39 42 43 45 47 49 51 52 51 49 45 42 39 35 32 30 27 24 22 21 21 21 18 16 16 16
7 6 8 11 10 11 12 10 9 8 8 12 19 22 16 9 7 10 14 17 19 21 25 28 26 27 28 25 21 22 29 35 37 36 36 37 37 38 38 39 38 34 30 30 31 30 30 28 27 29 31 31 31 31 30 30 30 32 34 36 39 40 42 45 47 49 51 52 51 48 45 42 38 35 32 29 25 23 22 22 22 19 16 16 16 15
7 6 6 7 8 8 8 9 9 6 8 17 21 17 11 9 11 13 15 22 28 27 26 27 28 31 31 26 25 31 34 35 34 33 34 38 37 36 37 38 40 38 33 31 33 32 31 30 29 31 33 34 35 34 33 33 33 34 36 38 39 40 43 46 47 49 52 52 51 48 44 41 37 33 30 27 24 23 23 22 21 18 16 16 15 13
10 10 8 5 8 9 8 9 10 8 11 21 20 11 11 22 32 32 24 21 26 30 28 25 26 33 34 28 28 33 32 32 33 34 36 36 34 35 37 36 39 40 34 30 31 30 29 31 33 34 35 37 38 38 37 37 36 36 38 39 40 43 45 46 47 51 53 53 50 47 43 38 34 31 28 25 24 23 24 22 19 16 15 15 14 12
7 9 8 6 7 7 6 6 6 6 9 18 20 16 18 30 41 42 33 25 24 25 22 18 20 24 25 24 26 28 28 28 30 32 32 32 32 34 34 35 39 39 34 31 31 29 29 33 35 37 39 40 41 42 41 40 39 39 40 41 43 45 46 47 50 53 54 53 49 45 41 37 33 30 27 25 24 24 24 21 18 16 16 15 13 11
6 7 6 4 5 7 8 7 5 6 8 10 13 17 21 23 22 21 21 21 23 27 29 27 28 30 30 29 26 23 23 25 26 27 28 29 31 33 34 35 37 37 35 35 34 32 33 36 38 39 41 43 44 44 43 42 41 41 41 42 44 46 46 48 52 55 55 52 47 43 40 37 34 30 27 25 25 24 22 19 17 16 15 14 12 11
6 11 10 6 8 8 6 7 10 11 14 17 20 22 23 24 25 26 26 26 29 35 37 36 37 37 37 36 32 29 30 32 32 32 34 34 35 36 37 38 38 38 38 38 37 37 39 41 42 44 45 47 47 46 45 44 43 42 42 43 44 46 47 50 53 56 55 51 47 44 40 36 33 30 28 27 26 24 21 18 16 15 14 13 12 11
9 16 14 10 9 9 9 11 14 16 19 18 16 15 16 18 22 26 29 32 34 36 36 37 39 39 39 39 38 35 35 36 36 37 40 41 41 40 40 41 41 41 41 40 40 42 44 45 47 47 48 49 49 47 46 44 43 44 45 45 45 45 47 51 55 56 54 50 47 43 39 35 32 29 28 27 25 22 19 16 15 14 13 12 11 11
15 15 11 11 13 13 14 14 12 12 14 14 14 17 20 23 26 31 35 37 37 38 38 38 38 37 36 38 40 38 37 39 40 39 40 41 42 42 42 43 43 44 44 43 43 43 44 45 46 47 47 47 47 47 47 44 44 46 47 47 46 46 48 53 56 56 53 50 46 43 39 35 32 30 29 26 23 20 18 15 14 13 12 11 11 10
14 11 10 11 12 12 12 12 12 11 10 12 19 26 30 33 37 37 38 40 41 43 43 42 43 43 42 42 42 41 41 42 44 43 42 42 43 44 44 44 43 43 43 44 43 43 44 44 45 45 45 45 46 47 46 45 46 48 49 49 47 47 51 57 59 56 53 50 46 42 38 35 33 31 29 26 23 21 18 16 15 13 12 11 10 9
10 11 11 11 11 13 15 16 16 14 10 15 29 39 42 45 46 43 42 44 45 46 46 44 43 45 45 44 43 41 40 40 42 43 43 43 44 45 45 46 45 44 45 46 46 46 47 46 45 45 45 45 46 48 47 46 47 49 50 50 49 49 54 59 61 58 55 51 46 42 38 35 34 31 29 26 24 21 19 17 16 14 12 10 9 7
Wind_Direction
194 220 228 236 238 235 232 228 234 248 263 277 279 276 273 274 271 272 268 144 188 223 238 246 251 257 263 265 266 268 268 264 261 257 254 255 255 250 246 242 237 242 251 251 249 251 251 248 245 243 242 240 238 236 236 237 236 235 235 235 233 231 232 232 233 232 232 233 234 235 236 237 236 237 238 239 242 246 250 255 261 269 277 285 292 296
187 223 234 239 247 252 256 254 250 255 263 267 266 271 272 265 268 272 219 141 179 218 253 260 262 262 263 266 268 268 265 262 263 262 258 260 261 254 248 244 238 238 247 249 246 247 248 246 243 241 239 238 237 236 236 238 238 236 236 235 233 232 232 232 233 233 233 234 235 237 237 237 236 236 237 238 241 245 249 253 258 266 273 281 287 291
205 230 242 246 253 267 281 279 264 261 262 263 258 260 264 262 269 269 118 134 177 206 263 271 271 270 268 267 265 261 256 253 257 260 261 265 267 260 252 248 239 230 236 244 245 244 244 243 241 239 238 239 239 238 239 239 239 237 235 235 234 233 233 233 234 234 234 234 235 235 235 234 234 235 236 238 242 245 247 250 255 263 271 278 283 287
218 235 247 249 231 244 260 245 247 259 253 246 242 248 254 254 266 265 147 153 197 216 270 286 280 270 267 262 255 251 249 248 252 257 261 263 263 259 256 252 238 226 231 241 245 242 241 239 239 238 238 238 238 238 237 237 237 236 235 235 234 234 234 233 234 234 233 233 234 234 234 233 234 236 237 238 241 242 244 248 254 261 267 274 280 284
236 236 164 120 163 233 255 231 218 245 246 233 226 234 248 250 258 265 307 337 251 234 250 290 283 265 253 246 239 241 242 241 246 254 262 262 261 260 257 252 239 229 233 240 244 241 237 237 239 239 239 239 238 238 238 237 237 236 236 236 235 235 235 234 234 234 233 233 233 233 233 233 233 235 236 237 239 240 244 248 252 258 265 271 277 281
245 229 105 210 216 205 241 241 222 228 249 243 223 228 244 257 266 269 321 352 296 264 188 303 295 277 229 225 223 174 169 218 231 240 251 259 265 264 253 247 239 233 237 243 244 240 238 239 240 239 239 238 238 239 239 238 238 238 238 237 237 237 236 235 235 234 234 234 234 233 232 232 232 234 235 237 239 241 243 245 250 256 261 268 274 278
244 156 110 238 235 213 236 252 237 221 245 255 231 235 247 258 268 271 293 307 282 284 227 94 309 292 257 217 221 171 166 202 210 224 235 244 259 264 253 245 242 240 240 240 239 237 238 238 239 240 240 239 239 238 239 238 238 238 239 239 238 238 238 237 235 234 234 233 233 233 233 233 234 235 237 237 238 240 242 244 248 254 259 266 272 276
189 175 174 210 222 232 234 251 237 210 230 256 21 4 260 254 262 262 273 257 262 294 274 176 208 278 277 232 208 201 206 223 230 243 245 235 242 255 258 253 250 252 247 241 236 234 237 239 239 241 242 242 242 240 239 238 238 238 239 239 239 239 239 238 237 235 234 233 233 233 233 233 233 234 235 236 237 238 241 244 249 254 260 266 270 274
152 186 193 187 200 228 224 274 235 199 221 268 58 37 65 59 274 226 248 257 272 296 274 189 170 247 278 248 196 208 219 227 232 239 250 246 232 243 256 261 261 261 253 248 245 237 238 240 241 242 244 246 244 242 241 241 240 239 239 240 239 240 240 239 238 236 234 234 233 234 233 233 233 233 234 236 238 239 241 244 249 254 259 265 268 273
73 157 201 188 203 227 190 45 19 214 222 138 110 84 80 87 89 150 243 273 281 275 260 187 164 220 278 263 183 197 212 214 223 229 237 247 233 234 251 261 266 263 254 252 252 240 235 237 240 241 242 244 243 242 243 242 240 239 239 239 239 240 240 240 239 236 235 234 233 233 233 232 233 233 234 236 237 238 240 243 248 252 257 263 268 272
122 93 23 218 217 207 100 75 28 28 123 137 145 124 116 190 183 199 237 260 272 266 245 179 174 206 269 264 158 176 202 200 200 205 224 240 228 224 243 254 260 260 255 254 245 230 225 229 233 235 236 238 239 239 240 239 238 238 238 238 239 240 240 240 239 237 235 234 233 233 233 233 233 233 233 235 236 238 240 243 245 250 254 260 266 271
185 168 203 204 174 126 110 106 63 67 143 166 177 196 231 227 198 213 212 166 242 263 219 170 182 201 233 230 154 178 198 196 182 187 240 250 229 223 234 246 254 255 257 252 230 216 215 220 223 226 230 233 235 237 237 237 236 236 237 237 237 238 240 240 239 237 235 234 233 232 233 232 232 233 234 235 237 238 240 242 245 249 253 258 264 269
202 204 187 140 149 175 176 157 115 127 183 200 195 193 238 247 228 233 215 191 232 253 112 156 186 211 234 244 222 208 197 198 192 213 255 257 247 238 221 226 244 250 257 246 216 209 211 215 218 221 227 230 235 240 238 236 236 235 235 236 237 238 239 239 238 237 235 234 233 233 233 232 231 233 234 235 237 237 239 242 245 249 253 258 263 267
220 222 166 160 191 188 189 198 207 194 182 193 191 181 208 232 249 253 244 240 244 242 127 138 188 243 257 248 221 225 217 205 207 225 238 240 243 239 214 218 240 247 256 244 214 209 212 215 217 220 228 232 238 243 239 238 238 235 235 235 237 238 238 239 239 237 236 234 234 233 233 232 231 232 234 235 236 238 240 242 245 249 253 258 264 268
251 272 175 172 168 171 188 211 223 133 170 194 193 195 217 230 243 251 259 262 272 297 232 162 182 248 274 217 196 215 221 211 214 223 227 234 238 235 223 229 240 242 251 245 220 214 216 219 220 222 229 235 242 245 240 241 241 236 236 238 238 238 237 239 238 238 237 235 234 234 232 232 231 232 233 235 236 238 240 242 245 249 253 259 264 268
243 262 165 125 94 162 183 211 132 107 177 190 178 210 234 234 229 246 281 285 319 314 272 185 216 246 262 261 186 195 214 207 212 219 218 231 235 232 231 238 242 241 246 244 227 220 220 222 224 227 232 237 244 246 245 247 244 239 239 241 241 239 238 239 239 238 237 236 235 234 232 231 231 231 232 233 236 238 240 242 245 250 255 260 265 269
233 263 126 93 356 169 170 332 161 206 211 164 175 206 222 354 234 243 277 301 113 280 270 217 247 258 264 261 189 173 200 202 204 212 212 225 229 224 229 237 241 242 244 242 232 226 225 225 229 233 237 241 246 252 258 257 251 244 243 244 242 238 237 238 238 238 237 236 235 234 232 231 230 231 232 233 236 237 239 241 245 251 256 261 266 271
237 270 174 162 237 159 33 3 301 301 329 143 191 206 100 48 333 241 262 283 246 265 272 261 267 270 274 271 176 173 197 200 200 206 210 219 216 215 230 237 241 244 246 244 237 231 230 231 235 240 243 247 249 257 266 263 254 247 243 245 244 240 239 239 238 237 237 236 235 234 232 230 230 230 232 233 235 236 238 241 245 251 257 262 267 272
230 261 230 149 14 86 76 289 223 244 224 152 286 290 75 214 204 197 218 247 250 257 271 276 278 272 260 260 181 180 194 195 198 205 210 215 210 213 230 237 242 243 245 247 243 238 236 236 240 244 250 253 250 255 264 261 254 247 243 244 245 242 241 241 238 237 236 236 236 234 232 230 229 230 231 233 235 236 238 241 246 251 256 262 268 273
181 235 241 54 360 85 133 216 202 180 165 290 294 267 235 261 223 199 203 220 238 247 270 282 285 276 251 238 192 179 187 196 201 204 206 210 214 215 223 234 240 240 242 246 247 246 245 246 246 249 254 255 251 255 261 260 254 247 243 245 244 242 241 239 238 237 236 236 235 234 231 229 228 229 230 232 234 235 238 241 245 250 256 262 268 272
130 227 239 159 326 231 201 198 193 190 179 182 227 219 199 205 274 278 237 227 233 242 255 270 276 274 262 140 181 178 183 198 199 197 198 202 212 215 218 230 238 240 243 247 247 247 249 252 253 253 255 253 250 255 259 258 254 247 244 246 246 243 242 239 238 237 236 235 235 233 230 228 228 228 230 231 232 234 237 240 245 250 256 262 267 272
171 211 228 211 201 224 221 199 195 198 185 182 195 199 197 189 184 236 238 223 215 235 240 244 263 270 260 99 153 179 177 196 196 186 187 197 207 213 220 230 237 241 245 247 247 248 248 250 251 250 251 251 253 258 259 256 254 248 245 248 247 245 243 241 239 237 236 235 234 232 229 227 227 228 229 230 231 233 236 240 245 249 255 262 268 274
185 167 223 231 230 236 231 180 185 205 181 225 221 205 204 191 187 211 223 214 193 222 242 241 253 266 260 105 118 157 154 201 212 181 181 209 210 215 224 230 237 242 242 243 244 246 248 248 248 246 247 251 255 260 259 256 254 249 245 249 250 246 244 241 239 237 235 234 233 231 228 227 227 227 228 228 229 232 235 239 244 249 255 262 268 274
144 145 225 238 255 261 244 100 78 84 151 248 247 220 215 210 209 220 228 237 214 209 229 235 242 261 267 109 120 226 199 219 229 201 209 230 221 222 227 228 233 237 237 238 240 242 244 244 245 245 247 252 256 259 258 256 254 248 245 250 251 247 243 240 237 236 235 233 232 230 227 226 226 227 227 227 229 231 234 238 243 249 255 261 268 274
168 195 212 229 253 259 252 205 184 173 190 218 227 217 219 221 222 235 253 267 248 232 233 239 243 253 258 128 206 260 232 193 213 216 221 229 222 223 227 226 229 233 234 235 238 240 242 242 242 245 249 253 255 258 258 257 254 247 245 251 252 246 241 239 237 235 234 232 230 228 226 225 226 226 226 226 228 230 233 238 243 249 256 262 268 275
178 200 191 212 234 226 231 238 225 156 182 211 224 217 216 216 215 223 233 225 237 239 235 240 250 254 264 275 272 268 253 214 223 219 209 216 223 230 234 228 225 228 231 233 236 239 242 243 244 247 251 252 254 257 260 260 255 247 245 250 250 244 241 239 237 235 233 231 229 227 225 224 225 225 225 225 227 230 233 238 243 250 256 263 269 275
182 219 200 214 231 227 235 246 248 208 177 186 209 215 213 211 210 213 225 227 235 244 237 236 247 255 262 268 271 272 270 266 266 259 239 233 235 239 241 234 227 228 232 234 236 239 241 243 245 248 251 252 253 256 260 261 255 248 247 249 247 244 242 240 237 234 231 229 228 225 224 223 224 224 224 225 227 229 233 238 244 251 257 263 269 276
233 238 222 229 237 237 246 254 258 260 242 209 198 208 211 211 209 212 225 229 233 248 246 238 244 253 255 254 264 271 272 272 273 272 273 272 265 254 240 232 231 233 235 236 237 239 242 245 248 250 251 252 254 257 259 259 254 250 248 248 247 244 243 240 236 232 230 228 226 224 222 222 223 223 223 224 226 229 233 238 245 251 257 263 270 277
236 252 245 250 254 252 257 262 263 266 263 250 229 215 210 208 209 217 227 230 227 238 249 246 248 254 255 252 258 263 267 272 273 274 276 277 278 275 253 233 238 243 242 241 242 244 248 251 253 254 255 255 256 257 257 256 253 250 248 247 246 245 243 240 236 232 229 226 224 222 221 221 221 221 221 223 225 228 232 238 245 251 257 263 270 278
204 257 252 257 266 265 263 265 264 265 268 268 262 252 241 229 225 228 231 229 227 237 247 251 254 258 260 259 258 260 266 272 276 279 280 277 280 281 267 245 253 261 259 256 257 258 257 257 258 260 259 257 257 257 256 255 253 251 249 247 247 246 243 239 234 231 228 225 222 221 219 219 220 220 221 222 224 228 232 238 245 250 257 263 270 277
211 234 239 253 268 262 258 261 261 262 265 267 269 273 271 260 250 246 242 228 231 242 247 251 256 260 260 258 259 263 269 271 273 277 279 277 277 277 271 263 268 272 273 273 273 271 267 261 260 261 259 258 259 258 257 255 253 251 249 249 248 245 242 237 233 229 227 223 221 219 218 218 219 219 220 221 224 228 233 239 244 250 256 263 270 277
210 234 239 247 256 250 248 251 253 256 259 261 264 263 257 254 256 256 249 239 239 247 253 253 255 254 251 255 262 267 267 265 266 270 272 273 273 275 278 277 273 273 276 280 280 278 273 266 262 262 261 261 260 258 257 256 253 252 251 249 247 243 239 235 231 228 225 221 219 217 217 218 218 218 219 221 224 228 233 238 244 249 257 263 269 276
192 222 228 227 244 248 243 246 251 254 256 251 243 242 244 248 254 255 253 251 247 244 249 249 242 242 251 259 265 265 262 260 260 261 263 268 272 277 281 276 272 274 279 282 282 279 274 270 267 265 265 264 262 260 261 260 256 254 252 249 246 242 238 233 229 226 223 219 218 217 216 216 216 217 218 220 224 228 232 238 244 249 257 263 269 276
194 212 223 219 236 246 240 246 255 249 242 239 231 234 244 250 250 250 251 252 249 245 245 247 249 253 255 256 257 255 254 256 258 260 265 270 274 279 280 275 275 279 281 280 279 277 275 273 271 269 269 267 263 261 261 259 255 253 251 248 245 241 237 232 228 224 221 218 217 216 215 215 215 216 218 219 223 227 231 237 243 249 256 263 270 276
207 215 224 220 231 245 240 243 249 236 233 240 236 231 239 243 246 251 257 259 259 257 254 252 253 255 254 253 253 252 253 258 263 268 273 274 274 275 274 275 277 279 280 279 277 276 275 275 272 271 271 268 262 257 255 253 250 248 246 245 243 240 236 232 228 223 220 218 216 214 214 214 214 214 216 219 222 226 232 237 242 249 256 264 269 272
218 219 220 218 226 236 221 215 228 238 228 208 214 225 234 238 243 252 258 256 253 254 254 252 250 252 255 256 254 253 256 262 268 274 275 273 273 271 268 271 275 277 277 277 277 277 277 275 273 273 272 269 261 256 253 251 249 246 244 242 241 238 235 231 227 222 219 217 215 213 212 212 212 213 215 218 222 226 231 236 242 249 256 261 265 268
216 218 217 223 219 216 225 222 225 250 261 167 197 223 226 220 221 232 244 247 243 247 252 251 249 249 250 252 254 256 259 265 272 273 270 269 271 271 270 271 273 275 275 276 278 278 276 274 272 268 262 257 253 252 252 251 247 244 242 240 238 236 233 229 225 222 220 217 214 212 211 211 211 212 214 217 221 226 230 236 242 248 253 257 260 265
213 213 212 222 215 205 227 233 221 239 237 202 216 232 230 226 227 234 246 247 235 245 251 247 247 248 246 249 256 257 257 260 262 262 266 269 272 274 275 274 274 275 275 276 278 278 273 268 261 253 246 244 247 250 251 250 247 243 240 238 236 233 229 226 224 222 220 216 213 211 210 210 210 212 214 216 220 225 229 235 240 245 250 254 258 264
216 217 215 227 226 208 227 237 218 230 228 200 217 234 240 244 244 244 252 242 205 234 247 246 246 248 248 254 256 254 249 250 252 258 262 268 275 279 280 281 282 281 278 278 278 272 264 257 248 242 241 244 249 251 249 248 246 242 239 237 235 231 228 226 225 222 219 215 212 210 209 209 210 211 213 216 220 224 228 233 239 244 248 252 256 263
215 216 216 228 232 221 233 242 227 234 227 191 208 226 238 245 246 243 248 224 187 224 239 243 248 249 250 254 253 246 240 236 242 255 261 266 273 277 279 283 286 286 284 283 277 265 256 250 243 241 245 250 253 252 248 247 244 242 240 237 233 231 229 228 225 221 217 213 210 209 208 208 209 211 213 215 219 223 226 231 238 242 245 249 255 263
211 208 212 224 228 224 230 239 238 236 217 198 214 227 233 240 241 236 239 222 208 229 237 243 252 253 248 247 246 240 238 239 244 253 261 267 271 271 274 278 278 281 284 282 275 265 258 253 250 249 252 256 255 251 248 246 243 241 239 234 232 232 230 227 222 217 214 211 208 207 206 207 208 210 212 215 217 221 225 231 236 239 241 248 256 265
200 204 211 216 222 225 226 233 246 242 198 198 224 229 217 208 223 230 235 237 236 240 242 243 248 251 246 240 238 242 248 250 252 256 261 265 265 266 271 273 270 271 276 278 276 268 259 254 253 254 255 255 254 251 248 245 242 241 237 233 234 233 228 223 219 215 212 208 206 206 205 206 207 208 211 214 215 219 225 231 234 235 239 247 257 267
190 207 217 202 207 228 232 227 242 247 179 192 220 228 200 200 237 242 242 245 244 243 242 239 242 247 247 241 237 243 249 254 258 259 261 263 264 266 268 269 267 266 268 271 273 269 262 258 260 262 260 258 256 253 248 244 241 239 236 236 236 231 223 219 216 212 209 206 204 204 204 204 205 207 209 212 214 219 226 230 231 233 238 247 257 268
194 205 221 193 186 211 226 214 221 238 207 199 211 220 200 214 230 237 242 248 248 247 246 243 244 247 248 247 247 248 250 253 256 258 261 263 265 266 267 268 267 264 264 268 272 272 270 268 269 270 268 264 259 254 249 245 241 238 237 237 233 226 220 217 213 208 206 203 202 202 202 202 204 206 208 211 215 221 226 227 228 231 238 248 258 268
214 226 247 240 210 220 256 247 231 257 239 215 217 233 235 229 233 241 251 260 262 266 271 276 280 279 278 279 276 266 259 257 257 259 263 264 266 269 269 268 267 265 266 271 274 275 275 274 270 268 267 265 261 255 249 245 242 239 237 234 229 224 219 214 209 205 203 201 200 201 201 201 203 205 207 211 218 223 225 225 226 231 239 249 258 269
302 305 312 309 306 321 323 320 329 336 320 295 286 294 295 286 281 291 302 306 314 325 330 330 328 325 322 322 321 309 296 290 287 284 283 281 279 278 274 270 268 267 268 271 273 276 277 273 267 263 263 261 258 254 249 245 241 239 236 231 226 222 218 212 206 203 200 199 199 199 200 201 202 203 206 212 218 221 222 222 226 232 242 251 258 268
334 346 345 328 323 328 327 344 349 328 312 313 310 311 317 324 335 347 348 340 337 337 336 334 332 329 324 323 323 316 308 304 301 298 297 294 290 286 280 275 271 270 270 271 272 275 276 271 263 261 262 260 255 251 247 243 238 236 233 230 226 221 216 210 205 201 198 197 198 198 199 201 201 203 207 213 216 219 219 220 225 235 244 251 257 268
333 344 340 320 314 311 298 312 317 299 290 294 298 312 336 346 346 342 335 330 328 326 325 324 323 321 320 319 316 312 307 302 298 295 294 293 289 286 281 278 276 275 275 274 273 271 270 266 260 259 261 260 255 251 247 241 236 232 229 227 225 220 213 207 203 200 197 196 197 198 198 199 201 204 208 212 213 214 216 218 226 237 245 252 259 269
305 316 316 307 306 301 295 305 314 303 300 308 318 331 338 334 328 325 321 320 319 316 315 315 312 311 311 310 309 306 303 299 297 294 291 289 287 284 281 279 279 279 278 277 275 271 268 265 262 260 261 260 256 252 248 240 235 232 229 225 222 217 210 204 200 198 197 196 197 197 197 198 201 204 207 207 206 207 211 217 227 237 245 252 261 270
284 283 287 294 293 285 290 313 329 323 311 312 317 319 319 316 314 313 311 310 309 306 305 304 302 301 299 297 296 295 293 292 292 291 289 286 285 284 284 282 281 280 279 278 276 273 271 270 268 265 263 261 257 253 247 239 233 231 228 223 219 213 207 201 197 197 197 197 196 196 196 198 201 203 204 202 201 204 207 212 224 233 239 249 261 275
254 261 270 276 278 280 290 308 320 318 304 302 306 307 306 307 307 305 304 304 301 299 299 299 297 297 296 293 291 289 288 288 289 289 288 286 284 284 284 284 284 283 282 280 278 276 275 274 269 265 263 261 257 252 244 237 233 230 226 221 215 210 206 201 197 196 196 196 195 195 196 200 202 202 200 199 199 202 205 209 220 228 233 242 255 272